Tracking 19846 objects as of 18-Sep-2019
HD Live streaming from Space Station
objects crossing your sky now

RITE TARGET 2

Track RITE TARGET 2 now!
10-day predictions
RITE TARGET 2 is classified as:


NORAD ID: 28455
Int'l Code: 2002-056G
Perigee: 783.7 km
Apogee: 797.7 km
Inclination: 98.4 °
Period: 100.5 minutes
Semi major axis: 7161 km
RCS: 0.0143 m2 (small)
Launch date: December 14, 2002
Source: Japan (JPN)
Launch site: TANEGASHIMA SPACE CENTER (TNSTA)
aabbcc
Your satellite tracking list
Your tracking list is empty




NASA's NSSDC Master Catalog

Two Line Element Set (TLE):
1 28455U 02056G   19259.66705593 +.00000099 +00000-0 +52467-4 0  9990
2 28455 098.4385 213.3795 0009784 306.7357 053.2928 14.32438502321627
Source of the keplerian elements: AFSPC